This demonstration page uses our WeatherBlox Daily Observations layout. Learn more.

Left ArrowRight Arrow

Hourly Observations for May 22, 2022

Temp ( °F °C ) Dew Point ( °F °C ) Humidity (%) Winds ( mph kmh ) Pressure ( in mb ) Visibility ( mi km ) Precip ( " mm )
12:15 am 00:15 Cloudy 66 19 66 19 100 100 Calm 30.01 1016 10 16 N/A
12:35 am 00:35 Partly Cloudy 64 18 64 18 100 100 E 6 9 29.97 1015 7 11 N/A
12:55 am 00:55 Partly Cloudy 64 18 64 18 100 100 SE 8 13 29.96 1015 7 11 N/A
1:15 am 01:15 Cloudy 64 18 64 18 100 100 W 10 17 30.02 1017 7 11 N/A
1:35 am 01:35 Cloudy 64 18 64 18 100 100 W 7 11 30.02 1017 7 11 N/A
1:55 am 01:55 Cloudy 64 18 64 18 100 100 WNW 7 11 30.01 1016 10 16 N/A
2:15 am 02:15 Cloudy 64 18 64 18 100 100 WNW 8 13 30.01 1016 10 16 N/A
2:35 am 02:35 Cloudy 64 18 64 18 100 100 NNW 7 11 30.01 1016 10 16 N/A
2:55 am 02:55 Cloudy 63 17 63 17 100 100 NW 3 6 30.02 1017 10 16 N/A
3:15 am 03:15 Cloudy 63 17 63 17 100 100 NW 3 6 30.01 1016 10 16 N/A
3:35 am 03:35 Cloudy 63 17 63 17 100 100 NW 3 6 30.02 1017 10 16 N/A
3:55 am 03:55 Cloudy 63 17 63 17 100 100 NW 6 9 30.03 1017 10 16 N/A
4:15 am 04:15 Cloudy 63 17 63 17 100 100 NW 8 13 30.04 1017 10 16 N/A
4:35 am 04:35 Cloudy 61 16 61 16 100 100 NW 12 19 30.07 1018 7 11 N/A
4:55 am 04:55 Cloudy 59 15 59 15 100 100 NW 13 20 30.08 1019 10 16 N/A
5:15 am 05:15 Cloudy 57 14 57 14 100 100 NW 12 19 30.10 1019 4 6 N/A
5:35 am 05:35 Cloudy 55 13 55 13 100 100 NNW 10 17 30.11 1020 10 16 N/A
5:55 am 05:55 Cloudy 55 13 55 13 100 100 NW 8 13 30.12 1020 10 16 N/A
6:15 am 06:15 Cloudy 55 13 55 13 100 100 NW 10 17 30.13 1020 10 16 N/A
6:35 am 06:35 Cloudy 55 13 55 13 100 100 NW 12 19 30.14 1021 7 11 N/A
6:55 am 06:55 Cloudy 55 13 55 13 100 100 NW 12 19 30.14 1021 7 11 N/A
7:15 am 07:15 Cloudy 55 13 55 13 100 100 NW 9 15 30.16 1021 10 16 N/A
7:35 am 07:35 Cloudy 55 13 55 13 100 100 NW 8 13 30.16 1021 10 16 N/A
7:55 am 07:55 Cloudy 55 13 55 13 100 100 NW 10 17 30.16 1021 10 16 N/A
8:15 am 08:15 Cloudy 55 13 55 13 100 100 NW 10 17 30.17 1022 10 16 N/A
8:35 am 08:35 Cloudy 55 13 55 13 100 100 NW 7 11 30.18 1022 10 16 N/A
8:55 am 08:55 Cloudy 57 14 55 13 94 94 NW 10 17 30.18 1022 10 16 N/A
9:15 am 09:15 Cloudy 57 14 55 13 94 94 NW 10 17 30.19 1022 7 11 N/A
9:35 am 09:35 Cloudy 57 14 55 13 94 94 NW 10 17 30.19 1022 10 16 N/A
9:55 am 09:55 Cloudy 59 15 55 13 88 88 NW 13 20 30.19 1022 7 11 N/A
10:15 am 10:15 Cloudy 59 15 55 13 88 88 NNW 13 20 30.20 1023 10 16 N/A
10:35 am 10:35 Cloudy 59 15 55 13 88 88 NW 10 17 30.20 1023 10 16 N/A
10:55 am 10:55 Cloudy 59 15 55 13 88 88 NW 9 15 30.20 1023 10 16 N/A
11:15 am 11:15 Cloudy 59 15 55 13 88 88 NW 10 17 30.21 1023 10 16 N/A
11:35 am 11:35 Cloudy 59 15 55 13 88 88 NW 10 17 30.21 1023 10 16 N/A
11:55 am 11:55 Cloudy 61 16 55 13 83 83 NW 10 17 30.22 1023 10 16 N/A
12:15 pm 12:15 Cloudy 61 16 54 12 77 77 NW 12 19 30.23 1024 10 16 N/A
12:35 pm 12:35 Cloudy 63 17 52 11 68 68 NW 10 17 30.24 1024 10 16 N/A
12:55 pm 12:55 Cloudy 63 17 52 11 68 68 NW 12 19 30.25 1024 10 16 N/A
1:15 pm 13:15 Cloudy 63 17 50 10 64 64 WNW 9 15 30.26 1025 10 16 N/A
1:35 pm 13:35 Cloudy 63 17 50 10 64 64 NNW 12 19 30.26 1025 10 16 N/A
1:55 pm 13:55 Cloudy 63 17 50 10 64 64 NNW 13 20 30.26 1025 10 16 N/A
2:15 pm 14:15 Cloudy 63 17 48 9 59 59 NNW 10 17 30.26 1025 10 16 N/A
2:35 pm 14:35 Cloudy 64 18 48 9 56 56 NW 14 22 30.25 1025 10 16 N/A
2:55 pm 14:55 Cloudy 64 18 46 8 52 52 NW 12 19 30.26 1025 10 16 N/A
3:15 pm 15:15 Mostly Cloudy 64 18 45 7 49 49 NNW 9 15 30.25 1025 10 16 N/A
3:35 pm 15:35 Partly Cloudy 66 19 46 8 49 49 NW 7 11 30.26 1025 10 16 N/A
3:55 pm 15:55 Partly Cloudy 66 19 46 8 49 49 NW 10 17 30.26 1025 10 16 N/A
4:15 pm 16:15 Partly Cloudy 64 18 46 8 52 52 NNW 12 19 30.26 1025 10 16 N/A
4:35 pm 16:35 Partly Cloudy 66 19 46 8 49 49 NNW 12 19 30.26 1025 10 16 N/A
4:55 pm 16:55 Partly Cloudy 64 18 46 8 52 52 NW 10 17 30.26 1025 10 16 N/A
5:15 pm 17:15 Sunny 64 18 45 7 49 49 NW 13 20 30.26 1025 10 16 N/A
5:35 pm 17:35 Sunny 64 18 45 7 49 49 NW 12 19 30.26 1025 10 16 N/A
5:55 pm 17:55 Sunny 64 18 43 6 46 46 NNW 12 19 30.27 1025 10 16 N/A
6:15 pm 18:15 Sunny 64 18 43 6 46 46 N 9 15 30.27 1025 10 16 N/A
6:35 pm 18:35 Sunny 63 17 43 6 49 49 NNW 12 19 30.28 1025 10 16 N/A
6:55 pm 18:55 Sunny 63 17 41 5 45 45 NNW 12 19 30.28 1025 10 16 N/A
7:15 pm 19:15 Sunny 61 16 41 5 48 48 N 10 17 30.28 1025 10 16 N/A
7:35 pm 19:35 Sunny 61 16 41 5 48 48 N 12 19 30.27 1025 10 16 N/A
7:55 pm 19:55 Sunny 59 15 41 5 51 51 N 14 22 30.27 1025 10 16 N/A
8:15 pm 20:15 Sunny 59 15 39 4 48 48 N 9 15 30.28 1026 10 16 N/A
8:35 pm 20:35 Sunny 57 14 39 4 51 51 N 9 15 30.29 1026 10 16 N/A
8:55 pm 20:55 Sunny 57 14 37 3 48 48 N 12 19 30.29 1026 10 16 N/A
9:15 pm 21:15 Clear 55 13 37 3 51 51 N 10 17 30.30 1026 10 16 N/A
9:35 pm 21:35 Clear 55 13 37 3 51 51 N 9 15 30.31 1026 10 16 N/A
9:55 pm 21:55 Clear 54 12 37 3 54 54 N 7 11 30.33 1027 10 16 N/A
10:15 pm 22:15 Clear 54 12 39 4 58 58 NNE 6 9 30.33 1027 10 16 N/A
10:35 pm 22:35 Clear 54 12 39 4 58 58 N 6 9 30.33 1027 10 16 N/A
10:55 pm 22:55 Clear 54 12 39 4 58 58 NNE 8 13 30.34 1028 10 16 N/A
11:15 pm 23:15 Clear 54 12 39 4 58 58 NNE 7 11 30.34 1028 10 16 N/A
11:35 pm 23:35 Clear 52 11 39 4 62 62 NNE 7 11 30.35 1028 10 16 N/A
11:55 pm 23:55 Clear 52 11 39 4 62 62 NNE 8 13 30.35 1028 10 16 N/A

Powered by AerisWeather